This is the latest recevied weather packets stored in our database for station/object KI6SYE. If no packets are shown the sender has not sent any weather packets the latest 10 day(s).
| Time | Temp. | Humidity | Pressure | Rain* | Wind** | Luminosity | Snow |
|---|---|---|---|---|---|---|---|
| 1787945862 | 26.11° C | 86% | 1011.8 hPa | 0 mm | - | 777 W/m² | - |
| 1787945557 | 26.67° C | 85% | 1011.8 hPa | 0 mm | - | 714 W/m² | - |
| 1787945252 | 27.22° C | 83% | 1011.8 hPa | 0 mm | - | 681 W/m² | - |
| 1787944952 | 26.67° C | 83% | 1012.2 hPa | 0 mm | - | 769 W/m² | - |
| 1787944650 | 26.67° C | 85% | 1012 hPa | 0 mm | - | 758 W/m² | - |
| 1787944346 | 26.67° C | 84% | 1012.1 hPa | 0 mm | - | 749 W/m² | - |
| 1787944041 | 27.22° C | 82% | 1012.2 hPa | 0 mm | - | 751 W/m² | - |
| 1787943736 | 27.22° C | 82% | 1012.1 hPa | 0 mm | - | 741 W/m² | - |
| 1787943431 | 27.22° C | 81% | 1012.6 hPa | 0 mm | - | 633 W/m² | - |
| 1787943126 | 27.22° C | 80% | 1012.3 hPa | 0 mm | - | 624 W/m² | - |
| 1787942821 | 27.22° C | 80% | 1012.2 hPa | 0 mm | - | 534 W/m² | - |
| 1787942516 | 27.78° C | 78% | 1012.2 hPa | 0 mm | - | 752 W/m² | - |
| 1787942211 | 27.22° C | 79% | 1012.2 hPa | 0 mm | - | 733 W/m² | - |
| 1787941905 | 27.22° C | 79% | 1012.4 hPa | 0 mm | - | 711 W/m² | - |
| 1787941599 | 27.22° C | 78% | 1012.6 hPa | 0 mm | - | 686 W/m² | - |
| 1787941294 | 27.78° C | 77% | 1012.6 hPa | 0 mm | - | 676 W/m² | - |
| 1787940993 | 27.78° C | 75% | 1012.4 hPa | 0 mm | - | 667 W/m² | - |
| 1787940692 | 27.78° C | 74% | 1012.4 hPa | 0 mm | - | 660 W/m² | - |
| 1787940391 | 27.22° C | 77% | 1012.3 hPa | 0 mm | - | 654 W/m² | - |
| 1787940090 | 27.78° C | 76% | 1012.3 hPa | 0 mm | - | 650 W/m² | - |
| 1787939785 | 27.22° C | 75% | 1012.2 hPa | 0 mm | - | 635 W/m² | - |
| 1787939485 | 27.22° C | 76% | 1012.2 hPa | 0 mm | - | 617 W/m² | - |
| 1787939180 | 27.22° C | 76% | 1012.2 hPa | 0 mm | - | 621 W/m² | - |
| 1787938880 | 26.67° C | 77% | 1012.3 hPa | 0 mm | - | 569 W/m² | - |
| 1787938574 | 26.67° C | 77% | 1012.5 hPa | 0 mm | - | 534 W/m² | - |
* Rain latest hour (hover to see other rain measurements)
** Current wind speed in m/s (hover to see current wind gust speed)